Time,TemperatureF,DewpointF,PressureIn,WindDirection,WindDirectionDegrees,WindSpeedMPH,WindSpeedGustMPH,Humidity,HourlyPrecipIn,Conditions,Clouds,dailyrainin,SoftwareType,DateUTC
2013-01-01 00:01:00,38.0,37.0,30.40,ESE,117,8.0,9.0,97,0.00,,,0.01,,2013-01-01 08:01:00,
2013-01-01 00:11:00,38.0,37.0,30.40,ESE,117,8.0,9.0,97,0.00,,,0.01,,2013-01-01 08:11:00,
2013-01-01 00:21:00,38.0,37.0,30.40,NE,54,5.0,10.0,96,0.00,,,0.01,,2013-01-01 08:21:00,
2013-01-01 00:32:00,37.0,36.0,30.40,SE,131,4.0,10.0,96,0.00,,,0.01,,2013-01-01 08:32:00,
2013-01-01 00:42:00,37.0,36.0,30.39,ESE,112,5.0,8.0,96,0.00,,,0.01,,2013-01-01 08:42:00,
2013-01-01 00:53:00,37.0,36.0,30.39,ESE,112,5.0,8.0,96,0.00,,,0.01,,2013-01-01 08:53:00,
2013-01-01 01:02:00,37.0,36.0,30.40,NE,43,4.0,9.0,96,0.00,,,0.01,,2013-01-01 09:02:00,
2013-01-01 01:11:00,37.0,36.0,30.40,NE,43,4.0,9.0,96,0.00,,,0.01,,2013-01-01 09:11:00,
2013-01-01 01:21:00,37.0,36.0,30.41,East,81,7.0,12.0,97,0.00,,,0.01,,2013-01-01 09:21:00,
2013-01-01 01:32:00,36.0,35.0,30.40,ESE,114,6.0,10.0,97,0.00,,,0.01,,2013-01-01 09:32:00,
2013-01-01 01:42:00,36.0,35.0,30.40,ESE,114,6.0,10.0,97,0.00,,,0.01,,2013-01-01 09:42:00,
2013-01-01 01:52:00,36.0,35.0,30.42,East,89,6.0,15.0,97,0.00,,,0.01,,2013-01-01 09:52:00,
2013-01-01 02:01:00,36.0,35.0,30.42,ESE,120,7.0,11.0,97,0.00,,,0.01,,2013-01-01 10:01:00,
2013-01-01 02:11:00,36.0,35.0,30.42,ESE,113,8.0,12.0,97,0.00,,,0.01,,2013-01-01 10:11:00,
2013-01-01 02:22:00,36.0,35.0,30.42,ESE,113,8.0,12.0,97,0.00,,,0.01,,2013-01-01 10:22:00,
2013-01-01 02:32:00,36.0,35.0,30.42,ESE,123,11.0,15.0,97,0.00,,,0.01,,2013-01-01 10:32:00,
2013-01-01 02:42:00,36.0,35.0,30.42,ESE,123,11.0,15.0,97,0.00,,,0.01,,2013-01-01 10:42:00,
2013-01-01 02:52:00,36.0,35.0,30.42,East,99,10.0,11.0,97,0.00,,,0.01,,2013-01-01 10:52:00,
2013-01-01 03:01:00,35.0,34.0,30.42,East,100,10.0,15.0,96,0.00,,,0.01,,2013-01-01 11:01:00,
2013-01-01 03:11:00,35.0,34.0,30.42,East,100,10.0,15.0,96,0.00,,,0.01,,2013-01-01 11:11:00,
2013-01-01 03:22:00,35.0,34.0,30.42,ESE,103,14.0,14.0,96,0.00,,,0.01,,2013-01-01 11:22:00,
2013-01-01 03:32:00,35.0,34.0,30.42,East,100,12.0,19.0,96,0.00,,,0.01,,2013-01-01 11:32:00,
2013-01-01 03:42:00,35.0,34.0,30.42,East,100,12.0,19.0,96,0.00,,,0.01,,2013-01-01 11:42:00,
2013-01-01 03:53:00,35.0,34.0,30.41,ESE,109,12.0,19.0,96,0.00,,,0.01,,2013-01-01 11:53:00,
2013-01-01 04:02:00,35.0,34.0,30.40,ESE,112,16.0,19.0,95,0.00,,,0.01,,2013-01-01 12:02:00,
2013-01-01 04:12:00,35.0,34.0,30.40,ESE,112,16.0,19.0,95,0.00,,,0.01,,2013-01-01 12:12:00,
2013-01-01 04:22:00,35.0,34.0,30.39,SE,126,17.0,22.0,95,0.00,,,0.01,,2013-01-01 12:22:00,
2013-01-01 04:32:00,36.0,34.0,30.39,East,100,15.0,22.0,94,0.00,,,0.01,,2013-01-01 12:32:00,
2013-01-01 04:42:00,36.0,34.0,30.39,East,100,15.0,22.0,94,0.00,,,0.01,,2013-01-01 12:42:00,
2013-01-01 04:52:00,36.0,34.0,30.39,ESE,116,14.0,18.0,93,0.00,,,0.01,,2013-01-01 12:52:00,
2013-01-01 05:02:00,36.0,34.0,30.39,ESE,107,7.0,14.0,93,0.00,,,0.01,,2013-01-01 13:02:00,
2013-01-01 05:12:00,36.0,34.0,30.39,ESE,107,7.0,14.0,93,0.00,,,0.01,,2013-01-01 13:12:00,
2013-01-01 05:22:00,35.0,33.0,30.39,East,92,6.0,14.0,93,0.00,,,0.01,,2013-01-01 13:22:00,
2013-01-01 05:32:00,35.0,33.0,30.40,NE,36,10.0,13.0,92,0.00,,,0.01,,2013-01-01 13:32:00,
2013-01-01 05:42:00,35.0,33.0,30.40,NE,36,10.0,13.0,92,0.00,,,0.01,,2013-01-01 13:42:00,
2013-01-01 05:52:00,35.0,33.0,30.40,ESE,110,8.0,14.0,92,0.00,,,0.01,,2013-01-01 13:52:00,
2013-01-01 06:01:00,35.0,33.0,30.40,ENE,75,7.0,18.0,92,0.00,,,0.01,,2013-01-01 14:01:00,
2013-01-01 06:11:00,35.0,33.0,30.40,ENE,75,7.0,18.0,92,0.00,,,0.01,,2013-01-01 14:11:00,
2013-01-01 06:22:00,34.0,32.0,30.41,ESE,119,9.0,10.0,92,0.00,,,0.01,,2013-01-01 14:22:00,
2013-01-01 06:32:00,34.0,32.0,30.42,ESE,103,8.0,12.0,92,0.00,,,0.01,,2013-01-01 14:32:00,
2013-01-01 06:42:00,34.0,32.0,30.42,ESE,103,8.0,12.0,92,0.00,,,0.01,,2013-01-01 14:42:00,
2013-01-01 06:53:00,34.0,32.0,30.42,SE,133,8.0,10.0,91,0.00,,,0.01,,2013-01-01 14:53:00,
2013-01-01 07:02:00,34.0,32.0,30.42,ESE,112,6.0,12.0,91,0.00,,,0.01,,2013-01-01 15:02:00,
2013-01-01 07:12:00,34.0,31.0,30.42,ESE,105,9.0,14.0,90,0.00,,,0.01,,2013-01-01 15:12:00,
2013-01-01 07:22:00,34.0,31.0,30.42,ESE,105,9.0,14.0,90,0.00,,,0.01,,2013-01-01 15:22:00,
2013-01-01 07:32:00,34.0,31.0,30.42,ESE,110,8.0,11.0,90,0.00,,,0.01,,2013-01-01 15:32:00,
2013-01-01 07:42:00,34.0,31.0,30.42,ESE,110,8.0,11.0,90,0.00,,,0.01,,2013-01-01 15:42:00,
2013-01-01 07:53:00,34.0,31.0,30.42,SSE,147,6.0,11.0,90,0.00,,,0.01,,2013-01-01 15:53:00,
2013-01-01 08:02:00,34.0,32.0,30.42,ESE,107,7.0,10.0,91,0.00,,,0.01,,2013-01-01 16:02:00,
2013-01-01 08:11:00,34.0,32.0,30.42,ESE,107,7.0,10.0,91,0.00,,,0.01,,2013-01-01 16:11:00,
2013-01-01 08:22:00,34.0,32.0,30.43,SE,134,8.0,11.0,91,0.00,,,0.01,,2013-01-01 16:22:00,
2013-01-01 08:32:00,34.0,32.0,30.42,ESE,112,7.0,10.0,91,0.00,,,0.01,,2013-01-01 16:32:00,
2013-01-01 08:42:00,34.0,32.0,30.42,ESE,112,7.0,10.0,91,0.00,,,0.01,,2013-01-01 16:42:00,
2013-01-01 08:52:00,34.0,32.0,30.43,East,95,8.0,13.0,91,0.00,,,0.01,,2013-01-01 16:52:00,
2013-01-01 09:01:00,34.0,32.0,30.43,East,86,9.0,16.0,91,0.00,,,0.01,,2013-01-01 17:01:00,
2013-01-01 09:11:00,34.0,32.0,30.43,East,86,9.0,16.0,91,0.00,,,0.01,,2013-01-01 17:11:00,
2013-01-01 09:22:00,36.0,33.0,30.42,ESE,105,10.0,17.0,89,0.00,,,0.01,,2013-01-01 17:22:00,
2013-01-01 09:32:00,37.0,33.0,30.42,ESE,112,16.0,19.0,86,0.00,,,0.01,,2013-01-01 17:32:00,
2013-01-01 09:42:00,37.0,33.0,30.42,ESE,112,16.0,19.0,86,0.00,,,0.01,,2013-01-01 17:42:00,
2013-01-01 09:53:00,37.0,33.0,30.42,East,100,14.0,21.0,84,0.00,,,0.01,,2013-01-01 17:53:00,
2013-01-01 10:02:00,38.0,33.0,30.42,ESE,113,16.0,21.0,82,0.00,,,0.01,,2013-01-01 18:02:00,
2013-01-01 10:12:00,38.0,33.0,30.42,ESE,113,16.0,21.0,82,0.00,,,0.01,,2013-01-01 18:12:00,
2013-01-01 10:22:00,39.0,34.0,30.42,East,96,10.0,19.0,81,0.00,,,0.01,,2013-01-01 18:22:00,
2013-01-01 10:32:00,39.0,33.0,30.42,ENE,72,16.0,19.0,79,0.00,,,0.01,,2013-01-01 18:32:00,
2013-01-01 10:42:00,39.0,33.0,30.42,ENE,72,16.0,19.0,79,0.00,,,0.01,,2013-01-01 18:42:00,
2013-01-01 10:52:00,39.0,33.0,30.42,ENE,72,16.0,19.0,79,0.00,,,0.01,,2013-01-01 18:52:00,
2013-01-01 11:01:00,41.0,34.0,30.40,ESE,112,12.0,17.0,77,0.00,,,0.01,,2013-01-01 19:01:00,
2013-01-01 11:11:00,41.0,34.0,30.40,ESE,112,12.0,17.0,77,0.00,,,0.01,,2013-01-01 19:11:00,
2013-01-01 11:22:00,41.0,34.0,30.40,SE,135,16.0,22.0,75,0.00,,,0.01,,2013-01-01 19:22:00,
2013-01-01 11:32:00,42.0,34.0,30.40,East,82,9.0,16.0,74,0.00,,,0.01,,2013-01-01 19:32:00,
2013-01-01 11:42:00,42.0,34.0,30.40,East,82,9.0,16.0,74,0.00,,,0.01,,2013-01-01 19:42:00,
2013-01-01 11:52:00,43.0,35.0,30.40,ENE,60,9.0,10.0,72,0.00,,,0.01,,2013-01-01 19:52:00,
2013-01-01 12:01:00,43.0,35.0,30.39,ESE,114,8.0,11.0,72,0.00,,,0.01,,2013-01-01 20:01:00,
2013-01-01 12:11:00,43.0,35.0,30.39,ESE,114,8.0,11.0,72,0.00,,,0.01,,2013-01-01 20:11:00,
2013-01-01 12:22:00,43.0,34.0,30.39,ENE,78,12.0,14.0,71,0.00,,,0.01,,2013-01-01 20:22:00,
2013-01-01 12:32:00,44.0,35.0,30.38,ESE,120,6.0,7.0,71,0.00,,,0.01,,2013-01-01 20:32:00,
2013-01-01 12:42:00,44.0,35.0,30.38,ESE,120,6.0,7.0,71,0.00,,,0.01,,2013-01-01 20:42:00,
2013-01-01 12:52:00,45.0,36.0,30.37,ESE,116,11.0,13.0,70,0.00,,,0.01,,2013-01-01 20:52:00,
2013-01-01 13:02:00,45.0,35.0,30.36,ENE,77,5.0,13.0,69,0.00,,,0.01,,2013-01-01 21:02:00,
2013-01-01 13:12:00,45.0,35.0,30.36,ENE,70,9.0,15.0,68,0.00,,,0.01,,2013-01-01 21:12:00,
2013-01-01 13:22:00,45.0,35.0,30.36,ENE,70,9.0,15.0,68,0.00,,,0.01,,2013-01-01 21:22:00,
2013-01-01 13:32:00,45.0,35.0,30.35,ESE,113,7.0,15.0,68,0.00,,,0.01,,2013-01-01 21:32:00,
2013-01-01 13:42:00,45.0,35.0,30.35,ESE,113,7.0,15.0,68,0.00,,,0.01,,2013-01-01 21:42:00,
2013-01-01 13:52:00,46.0,36.0,30.34,ENE,60,8.0,12.0,68,0.00,,,0.01,,2013-01-01 21:52:00,
2013-01-01 14:02:00,46.0,36.0,30.34,ESE,113,10.0,15.0,67,0.00,,,0.01,,2013-01-01 22:02:00,
2013-01-01 14:11:00,46.0,36.0,30.34,ESE,113,10.0,15.0,67,0.00,,,0.01,,2013-01-01 22:11:00,
2013-01-01 14:22:00,46.0,36.0,30.34,ENE,65,6.0,15.0,67,0.00,,,0.01,,2013-01-01 22:22:00,
2013-01-01 14:32:00,46.0,35.0,30.35,ESE,109,9.0,13.0,66,0.00,,,0.01,,2013-01-01 22:32:00,
2013-01-01 14:42:00,46.0,35.0,30.35,ESE,109,9.0,13.0,66,0.00,,,0.01,,2013-01-01 22:42:00,
2013-01-01 14:52:00,46.0,35.0,30.35,ESE,114,9.0,13.0,66,0.00,,,0.01,,2013-01-01 22:52:00,
2013-01-01 15:02:00,45.0,35.0,30.35,ESE,113,10.0,14.0,67,0.00,,,0.01,,2013-01-01 23:02:00,
2013-01-01 15:12:00,45.0,35.0,30.35,ESE,113,10.0,14.0,67,0.00,,,0.01,,2013-01-01 23:12:00,
2013-01-01 15:22:00,44.0,34.0,30.34,East,98,8.0,15.0,67,0.00,,,0.01,,2013-01-01 23:22:00,
2013-01-01 15:32:00,44.0,34.0,30.34,SE,127,10.0,14.0,68,0.00,,,0.00,,2013-01-01 23:32:00,
2013-01-01 15:42:00,44.0,34.0,30.34,SE,127,10.0,14.0,68,0.00,,,0.00,,2013-01-01 23:42:00,
2013-01-01 15:52:00,44.0,34.0,30.34,SE,128,12.0,16.0,67,0.00,,,0.00,,2013-01-01 23:52:00,
2013-01-01 16:02:00,44.0,34.0,30.34,ESE,102,9.0,9.0,67,0.00,,,0.00,,2013-01-02 00:02:00,
2013-01-01 16:12:00,44.0,34.0,30.34,ESE,102,9.0,9.0,67,0.00,,,0.00,,2013-01-02 00:12:00,
2013-01-01 16:22:00,44.0,34.0,30.33,ESE,109,11.0,17.0,68,0.00,,,0.00,,2013-01-02 00:22:00,
2013-01-01 16:32:00,43.0,33.0,30.32,SE,128,11.0,19.0,68,0.00,,,0.00,,2013-01-02 00:32:00,
2013-01-01 16:42:00,43.0,33.0,30.32,SE,128,11.0,19.0,68,0.00,,,0.00,,2013-01-02 00:42:00,
2013-01-01 16:52:00,42.0,33.0,30.32,ESE,103,14.0,18.0,69,0.00,,,0.00,,2013-01-02 00:52:00,
2013-01-01 17:02:00,42.0,33.0,30.32,ESE,107,13.0,18.0,70,0.00,,,0.00,,2013-01-02 01:02:00,
2013-01-01 17:11:00,42.0,33.0,30.32,ESE,107,13.0,18.0,70,0.00,,,0.00,,2013-01-02 01:11:00,
2013-01-01 17:22:00,41.0,32.0,30.32,East,96,15.0,19.0,70,0.00,,,0.00,,2013-01-02 01:22:00,
2013-01-01 17:32:00,40.0,32.0,30.32,ESE,112,18.0,22.0,72,0.00,,,0.00,,2013-01-02 01:32:00,
2013-01-01 17:42:00,40.0,32.0,30.32,ESE,112,18.0,22.0,72,0.00,,,0.00,,2013-01-02 01:42:00,
2013-01-01 17:52:00,40.0,32.0,30.32,ESE,114,15.0,22.0,72,0.00,,,0.00,,2013-01-02 01:52:00,
2013-01-01 18:02:00,39.0,31.0,30.32,ESE,117,15.0,21.0,73,0.00,,,0.00,,2013-01-02 02:02:00,
2013-01-01 18:11:00,39.0,31.0,30.32,ESE,117,15.0,21.0,73,0.00,,,0.00,,2013-01-02 02:11:00,
2013-01-01 18:22:00,39.0,31.0,30.31,ESE,107,17.0,20.0,74,0.00,,,0.00,,2013-01-02 02:22:00,
2013-01-01 18:32:00,39.0,31.0,30.31,East,99,16.0,23.0,74,0.00,,,0.00,,2013-01-02 02:32:00,
2013-01-01 18:42:00,39.0,31.0,30.31,East,99,16.0,23.0,74,0.00,,,0.00,,2013-01-02 02:42:00,
2013-01-01 18:52:00,39.0,31.0,30.30,ESE,102,13.0,23.0,73,0.00,,,0.00,,2013-01-02 02:52:00,
2013-01-01 19:01:00,39.0,31.0,30.30,East,88,12.0,15.0,73,0.00,,,0.00,,2013-01-02 03:01:00,
2013-01-01 19:11:00,39.0,31.0,30.30,East,88,12.0,15.0,73,0.00,,,0.00,,2013-01-02 03:11:00,
2013-01-01 19:22:00,39.0,31.0,30.30,East,96,12.0,17.0,73,0.00,,,0.00,,2013-01-02 03:22:00,
2013-01-01 19:32:00,39.0,31.0,30.29,ENE,65,11.0,16.0,72,0.00,,,0.00,,2013-01-02 03:32:00,
2013-01-01 19:42:00,39.0,31.0,30.29,ENE,65,11.0,16.0,72,0.00,,,0.00,,2013-01-02 03:42:00,
2013-01-01 19:52:00,39.0,31.0,30.29,SE,130,8.0,22.0,72,0.00,,,0.00,,2013-01-02 03:52:00,
2013-01-01 20:02:00,39.0,30.0,30.29,ENE,58,11.0,19.0,71,0.00,,,0.00,,2013-01-02 04:02:00,
2013-01-01 20:11:00,39.0,30.0,30.29,ENE,58,11.0,19.0,71,0.00,,,0.00,,2013-01-02 04:11:00,
2013-01-01 20:22:00,39.0,30.0,30.29,East,79,11.0,20.0,71,0.00,,,0.00,,2013-01-02 04:22:00,
2013-01-01 20:32:00,39.0,30.0,30.28,ESE,102,11.0,20.0,71,0.00,,,0.00,,2013-01-02 04:32:00,
2013-01-01 20:42:00,39.0,30.0,30.28,ESE,102,11.0,20.0,71,0.00,,,0.00,,2013-01-02 04:42:00,
2013-01-01 20:52:00,39.0,30.0,30.28,ESE,103,15.0,20.0,70,0.00,,,0.00,,2013-01-02 04:52:00,
2013-01-01 21:02:00,39.0,30.0,30.28,ENE,64,10.0,20.0,70,0.00,,,0.00,,2013-01-02 05:02:00,
2013-01-01 21:12:00,39.0,30.0,30.28,ENE,64,10.0,20.0,70,0.00,,,0.00,,2013-01-02 05:12:00,
2013-01-01 21:22:00,39.0,30.0,30.28,East,79,11.0,16.0,70,0.00,,,0.00,,2013-01-02 05:22:00,
2013-01-01 21:32:00,40.0,31.0,30.27,ESE,106,14.0,21.0,70,0.00,,,0.00,,2013-01-02 05:32:00,
2013-01-01 21:42:00,40.0,31.0,30.27,ESE,106,14.0,21.0,70,0.00,,,0.00,,2013-01-02 05:42:00,
2013-01-01 21:52:00,40.0,31.0,30.27,ESE,105,18.0,22.0,70,0.00,,,0.00,,2013-01-02 05:52:00,
2013-01-01 22:02:00,40.0,31.0,30.27,SE,134,19.0,23.0,70,0.00,,,0.00,,2013-01-02 06:02:00,
2013-01-01 22:11:00,40.0,31.0,30.27,SE,134,19.0,23.0,70,0.00,,,0.00,,2013-01-02 06:11:00,
2013-01-01 22:22:00,40.0,31.0,30.27,NE,39,13.0,23.0,71,0.00,,,0.00,,2013-01-02 06:22:00,
2013-01-01 22:32:00,40.0,31.0,30.26,ENE,68,13.0,19.0,70,0.00,,,0.00,,2013-01-02 06:32:00,
2013-01-01 22:42:00,40.0,31.0,30.26,ENE,68,13.0,19.0,70,0.00,,,0.00,,2013-01-02 06:42:00,
2013-01-01 22:52:00,40.0,31.0,30.26,ENE,74,14.0,21.0,71,0.00,,,0.00,,2013-01-02 06:52:00,
2013-01-01 23:01:00,40.0,31.0,30.26,ENE,64,13.0,21.0,71,0.00,,,0.00,,2013-01-02 07:01:00,
2013-01-01 23:12:00,40.0,31.0,30.26,ENE,64,13.0,21.0,71,0.00,,,0.00,,2013-01-02 07:12:00,
2013-01-01 23:22:00,40.0,31.0,30.27,East,91,7.0,20.0,71,0.00,,,0.00,,2013-01-02 07:22:00,
2013-01-01 23:32:00,39.0,30.0,30.28,SE,133,8.0,14.0,71,0.00,,,0.00,,2013-01-02 07:32:00,
2013-01-01 23:42:00,39.0,30.0,30.28,SE,133,8.0,14.0,71,0.00,,,0.00,,2013-01-02 07:42:00,
2013-01-01 23:52:00,39.0,30.0,30.28,SE,127,10.0,13.0,71,0.00,,,0.00,,2013-01-02 07:52:00,